Temp
10 10 10 9 9 9 10 10 10 10 10 10 10 10 10 10 10 10 10 10 10 10 9 9 9 8 8 8 8 8 7 7 7 7 7 7 7 7 7 7 7 7 7 7 7 8 8 8 7
10 10 10 9 9 9 10 10 10 10 10 10 10 10 10 10 10 10 10 10 10 10 9 9 8 8 8 8 7 7 7 7 7 7 7 7 7 7 7 7 7 7 7 7 7 7 7 8 8
10 10 10 9 10 10 10 10 10 10 10 10 10 10 10 10 10 10 10 10 9 9 9 9 8 8 8 7 7 7 7 7 7 7 7 7 6 7 7 7 7 7 7 6 6 7 7 7 8
10 10 9 10 10 9 10 10 10 10 10 10 10 10 10 10 10 10 10 10 9 9 9 8 8 8 7 7 7 7 7 6 6 6 7 6 6 6 6 6 6 7 7 6 6 6 6 7 7
10 10 9 10 10 10 10 10 10 10 10 10 10 10 10 10 10 10 10 9 9 9 8 8 8 8 7 7 7 7 6 6 6 6 6 6 6 6 6 6 6 6 6 6 6 6 6 6 6
10 9 10 10 10 9 9 9 9 10 10 10 10 10 10 10 10 10 10 9 9 9 8 8 8 7 7 7 7 6 6 6 6 6 6 6 6 6 6 6 6 6 6 6 7 7 7 6 6
9 9 9 9 9 9 9 9 9 9 9 10 10 10 10 10 10 10 9 9 8 8 8 8 7 7 7 6 6 6 6 6 6 6 6 6 6 6 6 6 6 6 6 7 7 7 7 7 7
9 9 9 9 9 9 9 9 9 9 9 9 9 10 10 9 9 9 9 8 8 8 7 7 7 7 6 6 6 6 6 6 6 6 6 6 6 5 6 6 7 7 7 7 7 7 7 7 7
9 8 9 9 9 9 8 8 8 9 9 9 9 9 9 9 9 9 9 8 8 7 7 7 7 6 6 6 5 5 5 5 6 6 6 6 5 5 5 6 7 7 7 7 7 7 7 7 7
8 8 8 8 8 8 8 8 8 8 8 9 9 9 8 8 8 8 8 8 7 7 7 6 6 6 6 5 5 5 5 5 5 5 5 6 5 5 5 6 6 6 6 6 7 7 7 7 7
8 8 8 8 8 8 8 8 8 8 8 8 8 8 8 8 8 8 7 7 7 7 6 6 6 5 5 5 5 5 5 5 5 5 5 5 5 5 5 5 6 6 6 6 6 7 7 7 6
8 8 8 8 8 8 8 8 8 8 7 8 8 8 8 8 7 7 7 7 6 6 6 5 5 5 5 4 4 4 4 4 5 5 5 5 4 4 4 5 5 5 5 5 6 6 6 6 6
8 8 7 7 7 7 7 7 7 7 7 7 7 7 7 7 7 6 6 6 6 6 5 5 5 4 4 4 4 4 4 4 4 4 4 4 4 4 4 4 4 4 5 5 5 5 5 6 6
8 8 7 7 7 7 7 7 7 6 6 6 6 6 6 6 6 6 6 6 5 5 5 4 4 4 4 3 3 3 3 3 3 3 3 3 3 3 3 4 4 4 4 4 5 5 5 5 5
8 8 8 7 7 7 7 8 6 5 5 5 5 5 5 5 5 5 5 5 4 4 4 4 3 3 3 3 3 3 3 3 3 3 3 3 3 3 3 3 3 3 4 4 5 5 5 5 5
8 7 7 7 7 7 7 8 5 5 5 4 4 4 4 4 4 4 4 4 4 3 3 3 2 2 2 2 2 2 2 2 2 2 2 2 2 2 2 2 3 3 3 3 4 4 4 4 4
7 7 7 7 7 7 6 8 5 5 6 5 5 5 4 4 3 3 3 3 3 2 2 2 2 1 1 1 1 1 1 1 1 1 1 1 2 2 2 2 2 2 2 3 3 3 4 4 4
7 6 6 6 7 7 7 8 6 6 6 6 6 5 4 3 3 2 2 3 3 2 2 1 1 0 1 1 1 1 1 1 1 1 1 0 1 1 1 1 1 1 2 2 2 2 3 3 3
6 6 6 6 6 7 7 7 6 6 6 6 6 6 4 2 1 1 2 2 2 2 2 1 0 -0 -0 -0 0 0 0 0 0 -0 -0 -0 -0 0 0 1 1 1 1 1 2 2 2 3 2
6 6 6 6 6 5 7 7 6 6 5 5 5 5 4 3 1 1 0 1 1 1 1 0 -0 -1 -1 -1 -1 -1 -1 -1 -1 -1 -1 -1 -1 -1 -1 -1 -0 0 0 0 1 1 1 2 2
6 5 5 5 6 6 5 7 5 5 4 4 4 5 4 4 2 1 0 -0 -0 0 0 -0 -1 -1 -1 -1 -1 -1 -1 -1 -2 -2 -2 -2 -2 -2 -2 -1 -1 -1 -1 -0 -0 0 1 1 1
5 5 4 4 4 4 4 2 5 4 3 3 4 4 4 3 3 2 0 -0 -1 -1 -1 -1 -1 -2 -2 -2 -2 -2 -2 -2 -2 -2 -2 -2 -3 -3 -2 -2 -2 -2 -2 -1 -1 -1 -1 -1 -0
5 4 4 4 3 2 3 2 5 4 3 2 3 3 3 2 2 2 1 -1 -1 -2 -2 -3 -3 -3 -3 -3 -3 -3 -3 -3 -3 -3 -3 -3 -3 -3 -3 -3 -3 -3 -3 -3 -2 -2 -2 -1 -1
4 4 3 3 1 -2 2 1 4 3 2 2 2 1 1 2 2 2 0 -1 -2 -2 -3 -3 -3 -4 -4 -4 -4 -4 -4 -4 -4 -4 -4 -4 -4 -4 -4 -4 -4 -4 -4 -3 -3 -3 -3 -3 -2
4 3 2 -2 -3 -3 0 0 4 2 1 1 1 1 1 1 1 1 -0 -2 -2 -3 -3 -4 -4 -4 -5 -5 -5 -5 -4 -4 -5 -5 -5 -5 -5 -5 -5 -5 -5 -5 -5 -4 -4 -4 -4 -3 -3
3 2 2 -4 -4 -3 -0 0 2 1 0 0 0 -0 0 0 -0 -1 -1 -2 -3 -3 -3 -4 -4 -4 -4 -5 -5 -5 -5 -5 -5 -6 -6 -6 -6 -6 -6 -6 -6 -6 -6 -6 -5 -5 -5 -5 -4
1 1 1 0 -3 -5 -1 1 1 -1 -1 -1 -1 -0 0 0 0 -0 -1 -3 -3 -3 -4 -4 -4 -4 -4 -5 -5 -5 -6 -6 -6 -6 -6 -7 -7 -7 -7 -7 -7 -7 -7 -6 -6 -6 -6 -5 -5
2 0 -0 -1 -8 -5 -2 -1 2 -0 -1 -1 -1 -1 -1 -1 -2 -2 -3 -4 -4 -4 -5 -5 -5 -5 -6 -6 -6 -7 -6 -7 -7 -8 -8 -7 -7 -7 -7 -7 -7 -7 -7 -7 -7 -7 -7 -7 -6
1 -1 -1 -1 -2 -6 -6 -2 1 -0 -1 -2 -2 -2 -2 -3 -2 -3 -4 -5 -5 -5 -6 -6 -7 -7 -7 -7 -7 -7 -8 -8 -8 -8 -8 -8 -8 -8 -8 -8 -8 -8 -8 -8 -8 -8 -8 -8 -8
-1 -1 -2 -2 -3 -3 -5 -2 -0 -1 -2 -3 -3 -4 -4 -4 -5 -4 -5 -5 -6 -6 -7 -7 -7 -7 -7 -7 -8 -8 -8 -8 -8 -8 -8 -8 -9 -9 -9 -9 -9 -9 -9 -9 -9 -9 -9 -8 -8
Height
3141 3142 3143 3145 3150 3146 3146 3146 3146 3146 3146 3145 3145 3145 3146 3145 3146 3149 3146 3146 3147 3147 3147 3147 3148 3148 3148 3148 3148 3148 3147 3147 3147 3146 3145 3144 3142 3142 3141 3140 3139 3138 3137 3136 3136 3135 3134 3133 3131
3141 3142 3143 3144 3146 3144 3145 3145 3145 3145 3145 3144 3144 3144 3144 3145 3144 3146 3146 3146 3146 3146 3147 3147 3147 3147 3147 3148 3147 3147 3146 3147 3146 3145 3144 3143 3142 3141 3140 3139 3138 3137 3136 3136 3135 3135 3134 3133 3131
3142 3142 3143 3143 3143 3143 3143 3144 3144 3144 3144 3143 3143 3143 3143 3143 3143 3144 3145 3145 3144 3145 3146 3146 3147 3147 3147 3147 3147 3146 3145 3145 3145 3143 3143 3141 3141 3140 3139 3138 3137 3137 3136 3135 3134 3134 3133 3133 3131
3140 3142 3143 3142 3141 3142 3142 3142 3143 3143 3142 3141 3141 3141 3142 3142 3142 3143 3144 3145 3144 3144 3145 3145 3146 3146 3146 3146 3146 3146 3144 3144 3143 3143 3142 3141 3140 3138 3138 3136 3136 3136 3135 3134 3133 3132 3132 3132 3131
3139 3140 3140 3139 3140 3140 3140 3140 3140 3140 3140 3139 3139 3140 3140 3140 3140 3141 3142 3143 3143 3144 3145 3145 3145 3145 3145 3145 3145 3144 3143 3143 3143 3141 3140 3140 3138 3137 3136 3135 3135 3134 3134 3133 3132 3131 3130 3130 3129
3138 3139 3138 3138 3138 3137 3138 3139 3138 3138 3138 3138 3138 3137 3138 3139 3139 3139 3141 3141 3141 3143 3143 3144 3143 3143 3144 3143 3143 3143 3142 3142 3141 3139 3139 3138 3137 3136 3135 3134 3133 3132 3132 3131 3130 3130 3128 3128 3128
3136 3136 3136 3136 3136 3136 3136 3137 3137 3136 3136 3135 3136 3135 3136 3136 3137 3138 3139 3139 3139 3140 3141 3142 3142 3142 3142 3142 3141 3141 3141 3141 3140 3138 3137 3136 3135 3135 3134 3132 3131 3130 3130 3129 3129 3128 3127 3127 3126
3134 3134 3134 3134 3134 3134 3134 3134 3133 3133 3133 3132 3133 3132 3134 3134 3134 3135 3136 3136 3137 3138 3139 3140 3140 3140 3140 3140 3140 3140 3139 3139 3138 3137 3136 3135 3133 3133 3132 3131 3130 3129 3128 3127 3127 3126 3126 3126 3126
3132 3132 3132 3132 3132 3132 3132 3132 3131 3130 3130 3129 3129 3130 3131 3130 3131 3133 3134 3135 3135 3136 3136 3137 3138 3138 3139 3139 3139 3139 3138 3137 3137 3135 3133 3132 3131 3131 3130 3129 3129 3129 3128 3127 3127 3125 3124 3124 3124
3130 3130 3130 3130 3130 3130 3130 3130 3129 3128 3126 3126 3126 3127 3127 3127 3128 3130 3131 3132 3133 3133 3134 3134 3135 3136 3136 3137 3137 3137 3136 3136 3135 3134 3132 3131 3130 3129 3129 3127 3127 3128 3127 3127 3126 3125 3124 3124 3123
3129 3128 3128 3128 3127 3127 3126 3126 3125 3124 3123 3123 3123 3122 3123 3123 3124 3126 3127 3128 3129 3130 3131 3132 3132 3133 3134 3135 3135 3135 3135 3135 3134 3132 3132 3130 3129 3128 3127 3126 3125 3126 3126 3126 3125 3125 3124 3123 3122
3128 3127 3126 3126 3125 3124 3123 3122 3121 3120 3120 3118 3118 3118 3119 3120 3121 3122 3123 3124 3126 3127 3127 3129 3129 3131 3132 3132 3133 3134 3134 3134 3132 3131 3130 3129 3128 3127 3125 3124 3123 3123 3124 3125 3125 3123 3124 3123 3122
3126 3126 3125 3124 3123 3122 3120 3118 3116 3117 3114 3113 3114 3114 3115 3116 3117 3118 3119 3120 3122 3123 3124 3126 3126 3128 3129 3130 3131 3132 3132 3132 3131 3130 3129 3128 3127 3126 3125 3124 3123 3121 3122 3123 3122 3122 3121 3121 3120
3125 3124 3124 3123 3122 3119 3117 3114 3111 3111 3110 3109 3109 3109 3110 3111 3113 3113 3115 3117 3118 3119 3120 3121 3123 3124 3126 3127 3128 3129 3129 3129 3129 3128 3127 3126 3125 3125 3124 3123 3121 3120 3120 3120 3119 3119 3119 3118 3117
3124 3124 3123 3121 3119 3116 3113 3112 3109 3107 3105 3104 3104 3104 3105 3106 3107 3109 3110 3112 3113 3115 3116 3118 3119 3120 3122 3124 3125 3126 3127 3127 3126 3126 3126 3124 3123 3122 3121 3120 3118 3117 3116 3116 3116 3116 3116 3115 3115
3124 3123 3121 3119 3116 3114 3111 3108 3105 3101 3099 3098 3098 3099 3100 3101 3102 3103 3105 3106 3108 3109 3111 3113 3115 3117 3119 3120 3122 3123 3124 3123 3123 3123 3123 3121 3120 3118 3117 3116 3115 3113 3112 3111 3111 3111 3111 3111 3111
3123 3121 3119 3117 3114 3112 3109 3105 3102 3096 3093 3091 3090 3091 3094 3095 3097 3098 3099 3101 3102 3104 3105 3108 3110 3112 3114 3116 3117 3119 3119 3120 3120 3120 3119 3118 3117 3115 3114 3113 3111 3110 3108 3107 3106 3106 3106 3106 3106
3122 3119 3117 3115 3113 3109 3106 3102 3098 3095 3092 3089 3086 3085 3086 3088 3092 3093 3094 3095 3097 3099 3101 3103 3106 3108 3110 3112 3114 3115 3116 3117 3117 3117 3116 3114 3112 3111 3110 3109 3107 3105 3104 3102 3100 3099 3098 3099 3100
3119 3118 3115 3113 3110 3105 3101 3099 3096 3094 3091 3088 3085 3082 3083 3085 3087 3089 3090 3091 3093 3095 3097 3099 3102 3104 3107 3109 3111 3112 3112 3113 3113 3112 3111 3110 3108 3107 3105 3104 3103 3101 3100 3098 3096 3094 3092 3091 3092
3116 3114 3112 3110 3107 3103 3099 3096 3093 3091 3089 3087 3084 3082 3081 3082 3084 3085 3086 3087 3089 3091 3093 3095 3098 3101 3103 3105 3106 3108 3108 3108 3108 3107 3106 3105 3104 3102 3100 3099 3098 3096 3094 3092 3091 3089 3086 3084 3084
3113 3112 3109 3107 3102 3098 3095 3092 3091 3089 3087 3085 3085 3083 3082 3081 3081 3082 3084 3085 3086 3088 3090 3093 3095 3097 3099 3100 3101 3102 3103 3103 3103 3103 3102 3100 3099 3097 3095 3094 3092 3090 3089 3087 3085 3083 3081 3079 3077
3110 3108 3106 3103 3101 3098 3095 3093 3088 3087 3086 3084 3082 3081 3080 3079 3079 3080 3082 3083 3084 3085 3087 3090 3092 3094 3096 3097 3097 3097 3097 3097 3097 3096 3095 3094 3093 3091 3090 3088 3086 3085 3083 3082 3080 3078 3076 3074 3073
3108 3105 3103 3099 3096 3095 3092 3093 3085 3085 3084 3082 3081 3080 3079 3079 3079 3078 3079 3080 3081 3082 3084 3086 3088 3089 3090 3091 3091 3092 3091 3091 3090 3090 3088 3087 3086 3084 3083 3082 3080 3078 3076 3075 3074 3072 3069 3068 3066
3105 3103 3099 3095 3094 3093 3090 3091 3083 3083 3082 3081 3079 3078 3078 3078 3078 3077 3077 3078 3079 3080 3081 3083 3084 3085 3086 3086 3086 3085 3085 3084 3083 3083 3082 3081 3079 3078 3077 3076 3074 3072 3070 3069 3068 3066 3064 3062 3061
3103 3101 3097 3098 3095 3093 3089 3088 3080 3079 3079 3078 3076 3075 3074 3074 3074 3075 3075 3076 3077 3077 3078 3078 3078 3078 3078 3079 3079 3079 3078 3077 3076 3075 3074 3073 3072 3070 3068 3067 3066 3064 3063 3062 3060 3059 3057 3055 3054
3099 3100 3100 3104 3097 3090 3087 3080 3076 3076 3076 3075 3074 3073 3071 3070 3069 3071 3072 3072 3073 3073 3074 3074 3073 3072 3071 3072 3072 3072 3071 3070 3069 3068 3067 3065 3063 3062 3060 3058 3057 3055 3054 3052 3051 3050 3048 3047 3046
3095 3095 3096 3094 3091 3091 3080 3075 3073 3071 3071 3070 3070 3069 3067 3066 3067 3068 3069 3069 3069 3069 3069 3069 3068 3067 3067 3066 3065 3064 3063 3063 3061 3060 3058 3056 3054 3053 3051 3048 3047 3046 3045 3042 3041 3040 3039 3037 3036
3092 3092 3091 3091 3095 3089 3075 3070 3066 3066 3066 3067 3066 3065 3065 3064 3064 3064 3064 3065 3065 3064 3064 3063 3062 3060 3059 3058 3057 3057 3056 3055 3053 3051 3049 3046 3044 3042 3039 3038 3037 3036 3035 3033 3031 3030 3028 3026 3026
3086 3084 3085 3086 3083 3080 3077 3064 3062 3062 3062 3062 3062 3061 3061 3060 3060 3059 3058 3057 3058 3056 3056 3055 3053 3051 3050 3049 3049 3047 3046 3044 3043 3041 3038 3035 3034 3031 3030 3028 3026 3025 3024 3022 3020 3020 3019 3016 3015
3079 3078 3079 3079 3075 3072 3069 3058 3060 3060 3058 3057 3057 3056 3054 3054 3053 3054 3052 3049 3049 3048 3047 3046 3045 3044 3043 3041 3040 3038 3036 3033 3031 3029 3027 3025 3024 3023 3020 3019 3016 3015 3012 3010 3009 3008 3006 3004 3003
Wind_Speed
4 7 8 9 5 4 3 4 6 7 8 10 10 10 9 9 5 1 0 3 2 2 1 1 1 3 4 5 5 3 3 4 3 4 4 5 5 6 7 8 8 8 8 8 8 8 8 9 8
3 6 8 7 3 4 2 4 4 7 8 9 9 9 10 10 9 7 4 2 2 2 1 1 1 3 4 5 4 4 4 5 5 5 5 5 5 6 7 8 8 9 9 9 9 7 7 6 8
3 5 7 5 8 4 3 4 7 8 10 9 9 7 9 7 8 8 4 2 3 3 2 2 3 3 4 4 5 5 5 6 6 5 5 6 7 7 8 8 7 8 9 9 9 7 5 6 6
4 6 7 9 6 6 7 8 9 12 12 11 10 9 8 10 8 7 7 5 6 4 4 4 3 3 4 4 4 6 6 6 7 7 8 7 8 8 9 9 7 7 8 9 9 8 6 5 4
5 7 11 8 7 8 9 10 12 12 14 13 11 12 9 8 9 10 8 7 7 6 6 5 4 4 4 4 4 5 4 5 7 7 9 9 9 9 9 10 9 7 7 8 9 8 8 5 4
7 8 8 10 7 8 8 10 10 12 14 14 13 13 13 11 11 10 9 9 9 8 7 6 5 5 5 4 5 5 6 6 8 9 11 11 9 9 10 11 10 7 8 8 6 6 6 6 4
8 9 10 9 9 10 10 12 14 14 14 16 15 15 13 12 12 12 10 10 10 9 8 7 7 6 6 5 5 4 5 8 10 12 12 12 9 9 8 9 9 8 6 6 6 5 5 5 4
9 10 10 8 8 11 12 12 13 14 16 16 15 13 12 13 14 12 11 11 11 11 10 9 9 8 7 7 5 6 6 8 11 13 12 11 9 8 8 8 8 7 6 5 6 6 5 4 3
9 10 9 8 9 10 11 13 15 19 19 17 18 15 14 15 14 12 11 11 12 12 11 11 10 9 8 8 6 7 7 10 11 12 13 13 11 10 9 7 7 7 6 4 3 4 5 5 4
9 9 7 7 9 12 13 17 19 20 20 19 18 17 16 17 17 15 14 13 12 12 13 12 11 11 10 9 9 8 8 9 11 12 11 11 10 9 8 6 6 6 6 5 3 3 4 5 5
5 6 6 8 11 13 16 17 18 18 19 18 17 18 18 18 17 16 15 15 15 14 13 13 13 13 12 11 10 9 9 10 11 11 10 9 8 8 8 7 7 7 7 7 5 4 4 5 7
1 2 4 5 8 11 13 15 16 16 14 16 16 17 17 15 15 16 16 16 15 15 15 15 15 15 14 13 12 10 9 9 9 8 8 8 8 8 8 9 8 8 9 8 8 6 6 6 7
2 4 5 6 7 9 13 16 19 16 16 18 17 16 16 16 16 16 17 18 16 16 16 16 17 16 16 15 13 12 10 9 8 6 7 7 8 8 9 9 9 9 10 12 10 9 9 9 10
3 4 6 8 11 13 16 18 16 14 15 17 16 16 17 17 18 19 18 17 16 18 17 18 18 18 17 16 14 13 11 9 8 7 8 9 9 10 10 10 10 9 11 12 12 12 12 13 14
4 4 8 11 15 19 25 15 14 13 17 16 16 17 16 16 18 18 19 18 18 19 19 19 19 19 18 17 16 14 12 11 10 10 11 12 13 13 14 14 14 12 13 15 15 16 14 15 18
5 4 11 17 16 22 26 20 15 19 19 21 19 16 14 15 15 17 19 20 21 21 20 20 20 20 19 18 17 16 14 14 13 12 13 14 13 13 14 16 16 16 16 17 18 19 19 17 20
7 10 13 18 20 23 26 19 19 17 18 18 22 23 21 21 20 19 19 19 21 21 21 21 21 21 21 20 19 18 17 16 16 15 15 14 14 15 16 18 19 19 19 19 20 20 20 21 21
10 14 16 19 24 23 25 19 14 12 17 17 13 16 21 20 16 16 17 19 20 21 21 22 22 22 22 21 20 19 18 18 18 17 16 16 16 17 19 21 23 24 24 24 24 24 23 22 22
13 16 17 21 18 27 24 19 11 11 15 15 15 12 11 13 13 13 13 14 17 19 22 23 23 24 23 23 22 21 21 20 20 20 19 19 19 20 22 23 24 26 26 26 25 25 27 25 24
14 17 16 15 26 26 20 15 10 8 13 16 15 11 5 3 5 7 7 10 14 18 21 23 24 24 24 24 23 22 22 22 22 22 23 23 23 23 24 25 26 27 29 29 28 27 27 30 28
16 14 14 23 27 25 15 6 9 8 11 15 12 13 12 9 7 7 5 6 9 13 18 22 23 24 25 25 25 24 24 25 25 25 25 25 26 26 27 28 28 28 30 31 31 30 29 28 30
14 11 17 24 26 9 16 5 7 6 6 12 13 10 11 10 8 8 7 5 5 8 15 20 23 25 26 27 27 27 27 28 27 27 28 28 28 28 29 29 29 29 30 32 34 32 30 30 30
11 14 20 26 19 15 7 4 5 7 4 9 10 10 10 11 11 7 7 7 6 7 9 16 22 26 28 29 29 29 28 28 28 29 30 31 31 31 30 30 31 32 32 32 32 33 32 31 31
10 16 22 13 10 2 5 1 5 4 4 5 5 5 6 8 13 9 7 8 7 7 7 10 17 24 29 31 32 31 31 30 30 31 32 32 33 33 33 33 34 35 33 31 31 30 30 30 30
10 15 5 4 2 4 5 9 10 7 4 3 3 6 12 10 7 3 3 5 7 8 9 11 15 21 29 33 34 34 34 33 33 33 34 34 35 35 36 36 38 38 34 31 30 30 31 31 31
16 7 3 5 3 4 12 9 3 5 5 10 7 15 12 5 1 3 5 3 1 4 7 11 15 18 22 29 34 35 36 35 35 35 35 36 36 37 38 41 40 34 31 31 32 32 32 33 34
5 7 6 7 5 2 6 7 10 8 11 12 14 15 13 6 3 7 7 9 9 11 13 16 20 21 23 27 32 35 36 37 37 37 38 38 41 43 45 39 32 30 31 33 34 34 35 36 38
14 11 7 7 0 5 7 9 12 13 14 15 17 11 7 7 8 12 11 13 15 16 19 23 25 26 26 28 30 34 36 37 39 41 43 44 46 43 34 30 32 33 35 38 39 39 40 41 41
16 18 13 8 8 5 3 5 10 14 17 23 16 14 13 19 25 20 18 23 24 24 22 23 25 27 30 32 33 35 36 38 41 44 45 45 41 34 35 36 36 38 40 41 41 40 41 42 42
21 20 18 10 7 11 5 12 24 25 25 22 16 18 20 20 19 37 27 27 18 19 21 22 24 25 26 29 32 35 37 39 40 39 38 36 36 36 36 37 38 39 40 41 43 44 44 45 46
Wind_Direction
168 168 170 169 179 211 210 236 244 267 270 266 253 238 244 236 247 315 149 198 182 198 206 42 19 347 335 336 340 342 350 343 354 352 343 342 338 332 331 325 327 327 330 330 333 344 358 2 359
177 188 183 192 226 230 249 276 287 280 291 281 272 254 249 247 250 243 268 197 218 262 318 330 309 309 326 332 323 334 349 338 344 345 340 338 334 327 327 323 318 316 322 326 324 330 343 354 1
200 211 198 212 231 222 267 305 313 306 310 296 273 261 240 252 245 237 254 223 241 251 258 273 284 301 326 322 320 336 345 335 334 335 335 335 330 328 323 315 317 312 310 319 316 323 331 334 350
222 211 215 230 227 231 272 296 303 310 312 302 274 266 257 250 249 244 239 222 237 249 249 256 268 293 299 309 321 328 344 329 321 333 332 326 324 330 326 328 320 309 312 321 314 318 324 331 338
227 230 231 243 237 253 278 289 299 309 312 301 280 266 263 257 250 250 247 238 238 239 245 250 262 272 279 296 313 320 323 327 319 326 320 317 326 328 324 328 322 325 311 316 309 303 305 317 339
232 231 240 245 240 258 280 281 289 303 306 297 279 267 259 254 254 253 246 241 243 241 243 251 258 266 275 288 296 318 322 321 311 320 312 312 317 319 321 325 321 318 310 327 334 318 326 313 321
248 246 256 255 256 266 278 277 288 298 299 291 282 270 267 263 259 254 247 246 248 250 249 250 253 258 264 267 282 303 312 310 317 322 315 309 312 316 321 332 332 330 315 335 340 353 354 340 331
250 252 262 267 263 266 275 284 296 301 300 294 284 274 276 258 258 257 251 249 248 250 249 247 250 253 258 265 277 292 303 310 319 322 319 311 310 308 312 321 340 325 317 328 328 353 354 355 351
245 250 265 271 272 275 279 279 284 292 292 292 287 279 268 264 262 260 260 257 253 251 252 248 250 252 255 263 273 284 299 312 321 327 326 312 308 308 305 310 329 319 318 316 330 350 353 359 13
247 258 274 276 278 282 281 282 287 288 289 286 285 284 273 265 263 261 262 258 253 252 253 250 249 250 252 256 264 275 290 309 320 325 321 317 306 309 303 308 314 312 312 306 321 325 336 353 1
263 277 282 288 288 289 290 289 288 289 288 290 286 276 270 264 263 262 262 260 255 256 257 251 246 248 250 250 257 268 289 306 314 316 313 312 315 312 310 313 314 307 303 298 300 300 310 328 339
341 328 323 315 307 303 301 299 295 291 299 285 279 275 272 270 263 260 259 258 258 257 254 250 246 242 244 247 253 262 276 292 302 305 311 311 318 317 314 311 313 304 295 291 291 285 292 301 304
43 347 344 344 335 322 310 304 299 306 293 283 279 275 272 266 263 260 257 257 261 262 257 250 245 242 241 244 249 255 267 281 291 304 318 326 325 320 316 313 313 312 298 290 286 281 274 274 280
24 55 22 15 356 338 331 326 315 303 295 286 279 275 269 266 263 261 264 265 263 260 256 250 245 241 241 242 245 251 260 271 276 288 304 319 324 325 322 313 308 301 293 287 282 274 271 278 277
37 30 353 347 346 348 346 359 340 307 291 286 277 267 266 267 264 267 263 257 252 251 248 246 242 239 240 241 243 248 254 254 262 276 293 302 306 309 314 312 309 308 297 286 280 276 269 262 263
350 321 352 335 335 344 344 349 335 311 290 278 267 256 254 263 264 262 261 256 250 247 243 239 237 236 237 238 241 246 249 253 262 275 286 295 300 310 320 322 315 314 306 301 289 278 279 275 269
332 329 337 346 332 333 340 353 334 324 327 307 282 266 257 254 257 265 266 263 251 242 238 236 233 233 234 236 239 243 248 254 263 274 284 290 297 307 317 322 327 323 317 308 296 290 279 275 274
328 327 324 337 331 330 336 347 333 333 345 336 324 288 265 255 259 260 267 259 254 242 235 231 229 231 235 238 242 246 252 259 268 277 285 291 298 306 314 320 327 325 322 315 312 303 294 283 275
323 325 318 329 334 329 335 340 334 329 349 2 350 325 287 265 257 266 268 254 246 242 236 231 231 232 235 240 244 250 257 264 272 279 285 291 297 302 309 315 320 320 318 314 310 306 300 297 293
314 317 315 324 330 326 329 334 324 335 345 357 2 8 4 303 276 283 277 263 255 247 236 232 231 234 238 242 248 254 261 268 274 280 284 288 294 300 306 310 313 316 319 316 310 306 305 300 299
309 310 311 320 326 324 325 305 326 342 349 356 12 18 10 360 334 323 308 277 261 251 244 236 235 236 240 245 250 255 261 268 274 279 285 289 293 297 302 305 310 313 314 312 308 305 304 305 302
309 309 315 319 320 311 316 279 284 322 351 350 352 3 2 359 348 324 315 304 272 251 244 243 241 242 246 250 254 259 265 271 276 281 285 288 290 291 294 300 306 311 313 310 307 305 305 306 305
299 310 314 311 305 306 287 274 258 303 358 356 3 12 17 25 13 352 310 286 278 266 251 243 244 245 247 250 254 259 265 271 277 280 281 283 286 290 294 299 304 307 308 305 303 303 304 305 306
298 313 313 301 303 274 193 334 273 238 322 339 355 40 45 7 349 322 288 284 297 302 286 269 257 254 255 255 256 260 265 270 275 278 281 283 286 290 293 297 302 305 302 295 294 295 296 298 299
298 317 305 337 338 227 222 293 254 248 271 247 240 311 328 343 345 298 295 318 317 314 301 286 269 260 254 255 258 262 267 271 275 278 280 282 286 290 294 298 302 301 292 285 286 287 287 289 292
298 262 250 246 236 279 282 248 237 231 235 203 252 314 312 328 112 173 182 184 237 275 274 275 277 275 264 256 258 262 267 270 274 276 279 281 284 288 293 299 298 288 279 282 283 282 283 283 286
277 239 245 253 278 325 247 261 257 233 210 236 292 302 292 275 296 297 240 222 234 258 275 286 289 280 268 262 260 263 268 272 274 276 278 281 284 289 293 292 284 278 278 280 282 283 282 281 280
258 257 235 225 261 242 260 258 242 215 230 279 297 282 238 220 282 276 263 274 280 280 284 284 278 272 270 264 263 266 269 270 272 273 275 278 284 289 284 280 278 276 275 277 279 280 279 278 276
261 244 239 233 221 203 268 235 219 235 263 288 278 245 248 290 291 267 273 293 290 284 279 271 268 267 266 264 266 271 274 273 273 275 279 283 283 277 277 278 279 281 280 279 278 276 275 274 274
258 255 248 226 217 223 251 268 267 274 278 268 243 242 267 274 276 295 280 268 267 274 278 276 273 272 272 274 275 276 275 273 275 277 278 276 276 275 277 278 278 279 278 276 276 277 276 276 276